Hazlehurst, GA

11:16 PM EST on December 13, 2019 (GMT -0500)
Hazlehurst

Weather History for KAZE - August, 2019

Change the Weather History Date:

Wednesday, August 7, 2019

  Actual Average Record
Temperature  
Mean Temperature 86 °F -  
Max Temperature 97 °F 93 °F 98 °F (2014)
Min Temperature 75 °F 72 °F 72 °F (2018)
Cooling Degree Days 20    
Growing Degree Days 36 (Base 50)    
Moisture  
Dew Point 69 °F    
Average Humidity 61    
Maximum Humidity 89    
Minimum Humidity 31    
Precipitation  
Precipitation 0.00 in - - ()
Sea Level Pressure  
Sea Level Pressure 29.91 in    
Wind  
Wind Speed 2 mph (WSW)    
Max Wind Speed 16 mph    
Max Gust Speed 23 mph    
Visibility 10 miles    
Events Thunderstorm    
Averages and records for this station are not official NWS values.
T = Trace of Precipitation, MM = Missing Value Source: NWS Daily Summary

Daily Weather History Graph

Daily Weather History Graph

Search for Another Location

Airport or City:

Astronomy

Aug. 07, 2019 Rise Set
Actual Time 6:49 AM EDT 8:22 PM EDT
Civil Twilight 6:23 AM EDT 8:48 PM EDT
Nautical Twilight 5:52 AM EDT 9:19 PM EDT
Astronomical Twilight 5:19 AM EDT 9:52 PM EDT
Moon 1:53 PM EDT (8/7) 12:31 AM EDT (8/7)
Length of Visible Light 14h 24m
Length of Day
13h 32m
Waxing Crescent, 49% of the Moon is Illuminated
Aug 7
Waxing Crescent
Aug 7
First Quarter
Aug 15
Full
Aug 23
Last Quarter
Aug 30
New

Hourly Weather History & Observations

Time (EDT) Temp. Heat Index Dew Point Humidity Pressure Visibility Wind Dir Wind Speed Gust Speed Precip Events Conditions
12:10 AM 77.0 °F - 70.7 °F 81% 29.94 in 10.0 mi SSW 3.5 mph - N/A   Clear
12:30 AM 76.6 °F - 70.7 °F 82% 29.94 in 10.0 mi Calm Calm - N/A   Clear
12:50 AM 76.5 °F - 70.9 °F 83% 29.94 in 10.0 mi Calm Calm - N/A   Clear
1:10 AM 76.1 °F - 71.1 °F 84% 29.93 in 10.0 mi Calm Calm - N/A   Clear
1:30 AM 75.9 °F - 71.1 °F 85% 29.92 in 10.0 mi Calm Calm - N/A   Clear
1:50 AM 75.6 °F - 70.9 °F 85% 29.92 in 10.0 mi Calm Calm - N/A   Clear
2:10 AM 75.7 °F - 70.9 °F 85% 29.92 in 10.0 mi Calm Calm - N/A   Clear
2:30 AM 75.7 °F - 70.9 °F 85% 29.92 in 10.0 mi Calm Calm - N/A   Clear
2:50 AM 76.1 °F - 70.9 °F 84% 29.91 in 10.0 mi Calm Calm - N/A   Clear
3:10 AM 75.7 °F - 71.1 °F 85% 29.91 in 10.0 mi SW 4.6 mph - N/A   Clear
3:30 AM 76.1 °F - 71.2 °F 85% 29.91 in 10.0 mi SW 3.5 mph - N/A   Clear
3:50 AM 76.1 °F - 71.6 °F 86% 29.90 in 10.0 mi SSW 3.5 mph - N/A   Clear
4:10 AM 76.3 °F - 71.6 °F 85% 29.92 in 10.0 mi SW 4.6 mph - N/A   Clear
4:30 AM 76.3 °F - 71.6 °F 85% 29.92 in 10.0 mi SW 3.5 mph - N/A   Clear
4:50 AM 76.6 °F - 72.0 °F 85% 29.92 in 10.0 mi SW 5.8 mph - N/A   Clear
5:30 AM 76.5 °F - 72.0 °F 86% 29.92 in 10.0 mi Calm Calm - N/A   Clear
5:50 AM 76.5 °F - 72.0 °F 86% 29.92 in 10.0 mi Calm Calm - N/A   Clear
6:10 AM 76.5 °F - 72.5 °F 87% 29.92 in 10.0 mi SW 3.5 mph - N/A   Clear
6:30 AM 76.5 °F - 72.5 °F 87% 29.92 in 10.0 mi Calm Calm - N/A   Clear
6:50 AM 76.1 °F - 72.5 °F 89% 29.92 in 10.0 mi Calm Calm - N/A   Clear
7:10 AM 76.1 °F - 72.5 °F 89% 29.94 in 10.0 mi Calm Calm - N/A   Clear
7:30 AM 76.5 °F - 72.7 °F 88% 29.94 in 10.0 mi Calm Calm - N/A   Clear
7:50 AM 77.4 °F - 72.5 °F 85% 29.94 in 10.0 mi SSW 3.5 mph - N/A   Clear
8:10 AM 78.8 °F - 72.7 °F 81% 29.95 in 10.0 mi SSW 3.5 mph - N/A   Clear
8:30 AM 80.1 °F 84.2 °F 72.9 °F 79% 29.96 in 10.0 mi SSW 3.5 mph - N/A   Clear
8:50 AM 81.1 °F 86.0 °F 72.9 °F 76% 29.96 in 10.0 mi SW 3.5 mph - N/A   Clear
9:10 AM 82.4 °F 87.9 °F 72.9 °F 73% 29.96 in 10.0 mi WSW 3.5 mph - N/A   Clear
9:30 AM 83.5 °F 89.4 °F 72.9 °F 70% 29.96 in 10.0 mi SW 4.6 mph - N/A   Clear
9:50 AM 85.3 °F 91.8 °F 72.7 °F 66% 29.96 in 10.0 mi Calm Calm - N/A   Clear
10:10 AM 86.2 °F 93.4 °F 73.2 °F 65% 29.96 in 10.0 mi SSW 4.6 mph - N/A   Clear
10:30 AM 88.0 °F 94.7 °F 71.8 °F 59% 29.96 in 10.0 mi WNW 3.5 mph - N/A   Clear
10:50 AM 88.7 °F 94.8 °F 71.2 °F 56% 29.96 in 10.0 mi SW 3.5 mph - N/A   Clear
11:10 AM 89.6 °F 94.7 °F 69.8 °F 52% 29.96 in 10.0 mi West 3.5 mph - N/A   Clear
11:30 AM 90.1 °F 95.3 °F 70.0 °F 51% 29.96 in 10.0 mi NW 4.6 mph - N/A   Clear
11:50 AM 91.4 °F 96.8 °F 69.6 °F 49% 29.96 in 10.0 mi Calm Calm - N/A   Clear
12:10 PM 91.8 °F 96.5 °F 69.1 °F 47% 29.96 in 10.0 mi Calm Calm - N/A   Clear
12:35 PM 93.6 °F 97.9 °F 68.0 °F 43% 29.95 in 10.0 mi West 4.6 mph - N/A   Clear
12:50 PM 93.9 °F 98.0 °F 67.6 °F 42% 29.94 in 10.0 mi NW 5.8 mph - N/A   Clear
1:10 PM 94.1 °F 97.3 °F 66.4 °F 40% 29.93 in 10.0 mi WSW 5.8 mph - N/A   Clear
1:30 PM 95.7 °F 100.3 °F 67.6 °F 40% 29.92 in 10.0 mi NW 3.5 mph - N/A   Clear
1:50 PM 95.7 °F 98.7 °F 65.7 °F 37% 29.92 in 10.0 mi Calm Calm - N/A   Clear
2:10 PM 95.5 °F 97.9 °F 64.9 °F 36% 29.91 in 10.0 mi West 5.8 mph - N/A   Scattered Clouds
2:30 PM 96.6 °F 99.2 °F 64.6 °F 35% 29.90 in 10.0 mi West 5.8 mph - N/A   Scattered Clouds
2:50 PM 96.8 °F 99.0 °F 63.9 °F 34% 29.89 in 10.0 mi West 4.6 mph - N/A   Scattered Clouds
3:10 PM 94.5 °F 97.0 °F 65.1 °F 38% 29.89 in 10.0 mi West 3.5 mph - N/A   Scattered Clouds
3:30 PM 96.4 °F 98.4 °F 64.0 °F 34% 29.89 in 10.0 mi North 16.1 mph 23.0 mph N/A Thunderstorm Thunderstorm
3:50 PM 92.8 °F 94.3 °F 63.9 °F 38% 29.88 in 10.0 mi North 6.9 mph - N/A   Scattered Clouds
4:10 PM 91.9 °F 94.1 °F 64.9 °F 41% 29.87 in 10.0 mi Calm Calm - N/A   Scattered Clouds
4:30 PM 95.2 °F 97.3 °F 64.6 °F 36% 29.87 in 10.0 mi NNW 3.5 mph - N/A   Clear
4:50 PM 95.9 °F 98.5 °F 64.8 °F 36% 29.86 in 10.0 mi West 5.8 mph - N/A   Clear
5:10 PM 96.3 °F 97.6 °F 63.1 °F 33% 29.85 in 10.0 mi WSW 3.5 mph - N/A   Clear
5:30 PM 96.6 °F 97.7 °F 62.6 °F 32% 29.85 in 10.0 mi Calm Calm - N/A   Clear
5:50 PM 96.8 °F 97.5 °F 61.7 °F 31% 29.86 in 10.0 mi WSW 4.6 mph - N/A   Clear
6:10 PM 96.4 °F 97.9 °F 63.0 °F 33% 29.85 in 10.0 mi WNW 4.6 mph - N/A   Clear
6:30 PM 96.1 °F 97.8 °F 63.1 °F 34% 29.85 in 10.0 mi Calm Calm - N/A   Clear
6:50 PM 95.5 °F 96.9 °F 63.3 °F 34% 29.86 in 10.0 mi West 3.5 mph - N/A   Clear
7:10 PM 94.5 °F 96.1 °F 63.9 °F 36% 29.85 in 10.0 mi Calm Calm - N/A   Clear
7:30 PM 93.4 °F 94.7 °F 63.9 °F 37% 29.86 in 10.0 mi Calm Calm - N/A   Clear
7:50 PM 91.2 °F 94.6 °F 66.9 °F 45% 29.87 in 10.0 mi Calm Calm - N/A   Clear
8:10 PM 89.1 °F 92.9 °F 68.2 °F 50% 29.88 in 10.0 mi Calm Calm - N/A   Clear
8:30 PM 87.1 °F 90.9 °F 68.5 °F 54% 29.89 in 10.0 mi Calm Calm - N/A   Clear
8:50 PM 86.0 °F 90.7 °F 70.2 °F 59% 29.89 in 10.0 mi Calm Calm - N/A   Clear
9:10 PM 85.3 °F 89.4 °F 69.6 °F 59% 29.90 in 10.0 mi Calm Calm - N/A   Clear
9:30 PM 86.0 °F 89.1 °F 67.6 °F 54% 29.91 in 10.0 mi Calm Calm - N/A   Clear
9:50 PM 84.4 °F 88.5 °F 69.4 °F 61% 29.92 in 10.0 mi South 3.5 mph - N/A   Clear
10:10 PM 85.1 °F 90.1 °F 70.7 °F 62% 29.92 in 10.0 mi South 3.5 mph - N/A   Clear
10:30 PM 84.6 °F 89.7 °F 71.1 °F 64% 29.92 in 10.0 mi South 4.6 mph - N/A   Clear
10:50 PM 83.8 °F 88.3 °F 70.7 °F 64% 29.93 in 10.0 mi SSW 6.9 mph - N/A   Clear
11:10 PM 83.3 °F 87.4 °F 70.0 °F 64% 29.92 in 10.0 mi SSW 5.8 mph - N/A   Clear
11:30 PM 82.8 °F 86.7 °F 70.0 °F 65% 29.92 in 10.0 mi SSW 6.9 mph - N/A   Clear
11:50 PM 82.4 °F 86.3 °F 70.0 °F 66% 29.92 in 10.0 mi SSW 6.9 mph - N/A   Clear